This is the latest recevied weather packets stored in our database for station/object K8GLX. If no packets are shown the sender has not sent any weather packets the latest 10 day(s).
| Time | Temp. | Humidity | Pressure | Rain* | Wind** | Luminosity | Snow |
|---|---|---|---|---|---|---|---|
| 1777900028 | 15° C | 53% | 1007.9 hPa | 0 mm | - | 332 W/m² | - |
| 1777899735 | 15° C | 53% | 1007.9 hPa | 0 mm | - | 311 W/m² | - |
| 1777899429 | 14.44° C | 54% | 1007.9 hPa | 0 mm | - | 308 W/m² | - |
| 1777899134 | 14.44° C | 53% | 1007.9 hPa | 0 mm | - | 282 W/m² | - |
| 1777898829 | 14.44° C | 54% | 1007.8 hPa | 0 mm | - | 266 W/m² | - |
| 1777898534 | 13.89° C | 55% | 1007.8 hPa | 0 mm | - | 249 W/m² | - |
| 1777898229 | 14.44° C | 54% | 1007.9 hPa | 0 mm | - | 241 W/m² | - |
| 1777897935 | 14.44° C | 54% | 1008 hPa | 0 mm | - | 241 W/m² | - |
| 1777897629 | 14.44° C | 55% | 1007.8 hPa | 0 mm | - | 207 W/m² | - |
| 1777897335 | 13.89° C | 55% | 1007.7 hPa | 0 mm | - | 192 W/m² | - |
| 1777897029 | 13.89° C | 55% | 1008 hPa | 0 mm | - | 175 W/m² | - |
| 1777896862 | 13.89° C | 55% | 1008 hPa | 0 mm | - | 157 W/m² | - |
| 1777896429 | 13.33° C | 55% | 1007.9 hPa | 0 mm | - | 141 W/m² | - |
| 1777896135 | 13.33° C | 56% | 1007.8 hPa | 0 mm | - | 127 W/m² | - |
| 1777895831 | 13.33° C | 57% | 1007.9 hPa | 0 mm | - | 58 W/m² | - |
| 1777895534 | 13.33° C | 57% | 1007.9 hPa | 0 mm | - | 80 W/m² | - |
| 1777895228 | 13.33° C | 56% | 1007.8 hPa | 0 mm | - | 59 W/m² | - |
| 1777895062 | 13.33° C | 56% | 1007.7 hPa | 0 mm | - | 83 W/m² | - |
| 1777894628 | 13.33° C | 56% | 1007.7 hPa | 0 mm | - | 81 W/m² | - |
| 1777894334 | 12.78° C | 57% | 1007.5 hPa | 0 mm | - | 66 W/m² | - |
| 1777894029 | 12.78° C | 57% | 1007.8 hPa | 0 mm | - | 65 W/m² | - |
| 1777893841 | 12.78° C | 57% | 1007.8 hPa | 0 mm | - | 59 W/m² | - |
| 1777893546 | 12.78° C | 57% | 1007.4 hPa | 0 mm | - | 60 W/m² | - |
| 1777893262 | 12.22° C | 58% | 1007.4 hPa | 0 mm | - | 48 W/m² | - |
| 1777892828 | 12.22° C | 58% | 1007.6 hPa | 0 mm | - | 38 W/m² | - |
* Rain latest hour (hover to see other rain measurements)
** Current wind speed in m/s (hover to see current wind gust speed)